Powrót do katalogu

CRRES DEB

CANISTER

AktywnyHEO
NORAD 21637·DEBRIS·🇺🇸 United States

Wystrzelony Jul 25, 1990 z Cape Canaveral Space Force Station

Loading…

Następne Przeloty (najbliższe 24 godziny)

TLE

ŚwieżeSource: Space-Track

Epoka: Sep 13, 2026, 11:06 UTC

1 21637U 90065P   26256.46279472  .00000354  00000-0  61720-3 0  9992
2 21637  17.9755 103.9599 6899437 232.8679  42.4987  2.70416089325960

Śledź CRRES DEB w czasie rzeczywistym z AllMySat

Download on the App Store